OBJECT J, 64884

Orbit data source: Space-Track

You're viewing an Uncataloged Satellite

Recently launched and/or uncataloged satellites may have evolving metadata. Metadata may include but not limited to: Owner, Maufacturer, Bus, Motor, and Mission.

OBJECT J, 64884 is a satellite in SSO that was launched on Fri, 25 Jul 2025 UTC via a SOYUZ-2-1B launch vehicle from the Vostochny Cosmodrome (VOSTO). Unknown objects in Earth's orbit typically refer to objects detected orbiting the Earth but have not yet been identified or cataloged. These objects could be anything from previously untracked satellites, spent rocket stages, debris from satellite collisions, or even natural meteoroids temporarily captured by Earth's gravity.

Loading next visibility...
Identifier
64884, 2025-155J
Orbit
SSO
Country
Flag of TBDTBD
Related business
None
Manufacturer
Unknown
Mission
Operational Commercial Technology
Bus & Motor
Unknown
Mass
Unknown
Launch date (UTC)
2025-07-25 (11 months ago)
Launch vehicle
SOYUZ-2-1B
Launch site
Vostochny Cosmodrome (VOSTO)
Object type
Unknown
Shape & HBR
Box, 1.1 m
Radar Cross Section
0.035 m², Medium (>0.1 m² and < 1m²)

Expand to show TLE details & history
Last TLE update: 19 hours ago

TLE from 19 hours ago
0 OBJECT J
1 64884U 25155J   26171.04009719  .00007599  00000-0  26759-3 0  9997
2 64884  97.4572 139.5426 0008808 144.4776 215.7052 15.29563643 81198
Epoch: 2026-06-20T00:57Z
TLE epoch observation values (Epoch: 2026-06-20T00:57:44.397Z)
Latitude
-0.00003°
Longitude
-143.15282°
Altitude
485.124 km
Speed
7.62 km/s
True Right ascension
09h 18m 10s
True Declination
0° 00' 00"
Sunlit
Object was in daylight at epoch
Visualization orbit readout
Latitude
Unknown
Longitude
Unknown
Altitude
Unknown
Speed
Unknown
Apparent Right ascension
Unknown
Apparent Declination
Unknown
Sunlit
N/A
Visualization observer readout
Local Sidereal Time
07:21:59
Azimuth
Unknown
Elevation
Unknown
Doppler factor
Unknown
Orbital elements
Apogee altitude
480.106 km
Perigee altitude
468.036 km
Semi-major axis
6,852.208 km
Eccentricity
0.00088
Inclination
97.4572°
RAAN
139.5426°
Arg. of periapsis
144.4776°
True anomaly
215.64635°
Mean anomaly
215.7052°
Eccentric anomaly
215.67577°
Mean motion
3.82646 °/min
Orbital period
94.08 mins
BSTAR
0.00026759
Loading maneuver chart data...
Computing Atmospheric mass density...
Loading historical data...
Loading historical data...
Loading historical data...
Loading historical data...
Loading historical data...
Loading historical data...
Loading historical data...

Documentation

Showing up to 5 results
|